WEOS

operational
NORAD ID: 27599 Int'l Des: 2002-056 Owner: CHIBA Country: J
LEOCIRCULARRETROGRADESSO

Über WEOS

Beschreibung wird geladen...

Live-Position

3D-Globus wird geladen...

Nächste Überflüge

Höhenverlauf

Altitude vs Time

uPlot chart will show altitude changes over time

Zweizeiliger Elementsatz

1 27599U 02056C 26062.48598051 .00000255 00000-0 11463-3 0 9991
2 27599 98.8041 28.8280 0008539 261.8718 98.1495 14.30799996211232
Epoch: 3. März 2026 • Age: 28 hours

Aktueller Status

Höhe 810.9 km
Geschwindigkeit 7.45 km/s
Subsatellitenpunkt -77.04°S, 151.47°W
Startdatum 14. Dez. 2002
Alter 23.2 years
Typ other

Technische Details

Klassifizierung Payload
Masse 50.00 kg
Trockenmasse 50.00 kg
Gesamtmasse 50.00 kg
Länge 0.50 m
Durchmesser 0.50 m
Spannweite 3.50 m
Form Box + Ant
Hersteller CHIBA
Phasenstatus In Orbit
Besitzer/Staat CHIBA/J

Große Konstellationen

Loading constellations...